When you browse on this site, cookies collect data to enhance your experience and personalize the content and advertising you see.
Visit our Privacy Policy to learn more. By continuing to use the site, you agree to this use of cookies and data.

Hourly Weather Corozal

Today, 16 July, Thursday

Time Temperature Precipitation Wind Pressure Humidity
00:00 +27°C° 0 mm 2 mps 760 mmHg 95%
01:00 +27°C° 0 mm 2 mps 760 mmHg 95%
02:00 +27°C° 0 mm 2 mps 759 mmHg 95%
03:00 +27°C° 0 mm 2 mps 759 mmHg 96%
04:00 +27°C° 0 mm 1 mps 759 mmHg 95%
05:00 +27°C° 0 mm 1 mps 759 mmHg 95%
06:00 +27°C° 0 mm 1 mps 760 mmHg 95%
07:00 +29°C° 0 mm 1 mps 760 mmHg 86%
08:00 +31°C° 0 mm 2 mps 760 mmHg 77%
09:00 +34°C° 0 mm 2 mps 761 mmHg 67%
10:00 +34°C° 0.2 mm 2 mps 760 mmHg 65%
11:00 +35°C° 0.2 mm 3 mps 760 mmHg 62%
12:00 +36°C° 0.2 mm 3 mps 760 mmHg 59%
13:00 +36°C° 0.2 mm 3 mps 759 mmHg 59%
14:00 +36°C° 0.2 mm 3 mps 759 mmHg 58%
15:00 +36°C° 0.2 mm 3 mps 758 mmHg 58%
16:00 +34°C° 0 mm 3 mps 758 mmHg 64%
17:00 +33°C° 0 mm 3 mps 758 mmHg 70%
18:00 +31°C° 0 mm 3 mps 758 mmHg 76%
19:00 +30°C° 0 mm 3 mps 759 mmHg 81%
20:00 +28°C° 0 mm 2 mps 759 mmHg 86%
21:00 +27°C° 0 mm 2 mps 760 mmHg 91%
22:00 +27°C° 0 mm 2 mps 760 mmHg 92%
23:00 +27°C° 0 mm 1 mps 760 mmHg 93%

Tomorrow, 17 July, Friday

Time Temperature Precipitation Wind Pressure Humidity
00:00 +27°C° 0 mm 1 mps 760 mmHg 94%
01:00 +26°C° 0.1 mm 1 mps 759 mmHg 95%
02:00 +26°C° 0.1 mm 1 mps 759 mmHg 96%
03:00 +26°C° 0.1 mm 1 mps 758 mmHg 97%
04:00 +26°C° 0.4 mm 1 mps 759 mmHg 97%
05:00 +26°C° 0.4 mm 1 mps 759 mmHg 97%
06:00 +26°C° 0.4 mm 1 mps 759 mmHg 97%
07:00 +27°C° 1.2 mm 1 mps 759 mmHg 93%
08:00 +28°C° 1.2 mm 1 mps 759 mmHg 90%
09:00 +29°C° 1.2 mm 2 mps 760 mmHg 87%
10:00 +30°C° 0.6 mm 1 mps 759 mmHg 83%
11:00 +31°C° 0.6 mm 1 mps 759 mmHg 79%
12:00 +30°C° 0.6 mm 0 mps 759 mmHg 75%
13:00 +32°C° 0.6 mm 1 mps 759 mmHg 74%
14:00 +32°C° 0.6 mm 1 mps 758 mmHg 72%
15:00 +32°C° 0.6 mm 2 mps 758 mmHg 71%
16:00 +31°C° 0.3 mm 2 mps 758 mmHg 76%
17:00 +30°C° 0.3 mm 2 mps 757 mmHg 82%
18:00 +29°C° 0.3 mm 1 mps 757 mmHg 87%
19:00 +28°C° 0 mm 2 mps 758 mmHg 89%
20:00 +28°C° 0 mm 2 mps 758 mmHg 91%
21:00 +27°C° 0 mm 2 mps 759 mmHg 93%
22:00 +27°C° 0 mm 1 mps 758 mmHg 93%
23:00 +26°C° 0 mm 1 mps 758 mmHg 94%

Day after tomorrow, 18 July, Saturday

Time Temperature Precipitation Wind Pressure Humidity
00:00 +26°C° 0 mm 1 mps 758 mmHg 94%
01:00 +26°C° 0 mm 1 mps 758 mmHg 95%
02:00 +26°C° 0 mm 1 mps 758 mmHg 95%
03:00 +26°C° 0 mm 1 mps 758 mmHg 96%
04:00 +26°C° 0.1 mm 1 mps 758 mmHg 96%
05:00 +26°C° 0.1 mm 1 mps 758 mmHg 96%
06:00 +26°C° 0.1 mm 1 mps 758 mmHg 96%
07:00 +28°C° 0.2 mm 1 mps 758 mmHg 88%
08:00 +29°C° 0.2 mm 1 mps 759 mmHg 81%
09:00 +31°C° 0.2 mm 2 mps 759 mmHg 73%
10:00 +32°C° 0.4 mm 2 mps 759 mmHg 72%
11:00 +32°C° 0.4 mm 2 mps 759 mmHg 70%
12:00 +33°C° 0.4 mm 3 mps 758 mmHg 69%
13:00 +34°C° 0.2 mm 3 mps 758 mmHg 65%
14:00 +34°C° 0.2 mm 3 mps 758 mmHg 61%
15:00 +35°C° 0.2 mm 3 mps 757 mmHg 57%
16:00 +32°C° 0 mm 2 mps 757 mmHg 63%
17:00 +31°C° 0 mm 2 mps 757 mmHg 69%
18:00 +29°C° 0 mm 2 mps 757 mmHg 76%
19:00 +28°C° 0 mm 2 mps 758 mmHg 80%
20:00 +27°C° 0 mm 2 mps 758 mmHg 85%
21:00 +26°C° 0 mm 2 mps 759 mmHg 90%
22:00 +26°C° 0 mm 2 mps 759 mmHg 91%
23:00 +26°C° 0 mm 1 mps 758 mmHg 92%

19 July, Sunday

Time Temperature Precipitation Wind Pressure Humidity
00:00 +25°C° 0 mm 1 mps 758 mmHg 93%
01:00 +25°C° 0 mm 1 mps 758 mmHg 93%
02:00 +25°C° 0 mm 1 mps 758 mmHg 94%
03:00 +25°C° 0 mm 1 mps 758 mmHg 95%
04:00 +25°C° 0 mm 1 mps 758 mmHg 95%
05:00 +26°C° 0 mm 1 mps 758 mmHg 95%
06:00 +26°C° 0 mm 1 mps 758 mmHg 95%
07:00 +28°C° 0.1 mm 1 mps 758 mmHg 86%
08:00 +30°C° 0.1 mm 2 mps 759 mmHg 77%
09:00 +32°C° 0.1 mm 2 mps 759 mmHg 68%
10:00 +34°C° 0 mm 2 mps 759 mmHg 64%
11:00 +34°C° 0 mm 2 mps 759 mmHg 59%
12:00 +35°C° 0 mm 2 mps 758 mmHg 54%
13:00 +35°C° 0 mm 3 mps 758 mmHg 54%
14:00 +35°C° 0 mm 3 mps 757 mmHg 54%
15:00 +35°C° 0 mm 3 mps 757 mmHg 54%
16:00 +34°C° 0 mm 3 mps 757 mmHg 61%
17:00 +31°C° 0 mm 2 mps 757 mmHg 68%
18:00 +30°C° 0 mm 2 mps 757 mmHg 74%
19:00 +29°C° 0 mm 2 mps 757 mmHg 79%
20:00 +28°C° 0 mm 2 mps 758 mmHg 83%
21:00 +27°C° 0 mm 1 mps 758 mmHg 87%
22:00 +26°C° 0 mm 1 mps 758 mmHg 89%
23:00 +26°C° 0 mm 1 mps 758 mmHg 90%

20 July, Monday

Time Temperature Precipitation Wind Pressure Humidity
00:00 +26°C° 0 mm 1 mps 758 mmHg 92%
01:00 +26°C° 0 mm 1 mps 757 mmHg 93%
02:00 +23°C° 0 mm 0 mps 757 mmHg 93%
03:00 +23°C° 0 mm 0 mps 757 mmHg 94%
04:00 +23°C° 0.2 mm 0 mps 757 mmHg 94%
05:00 +23°C° 0.2 mm 0 mps 757 mmHg 94%
06:00 +25°C° 0.2 mm 1 mps 758 mmHg 94%
07:00 +27°C° 0.4 mm 1 mps 758 mmHg 88%
08:00 +27°C° 0.4 mm 0 mps 758 mmHg 81%
09:00 +29°C° 0.4 mm 0 mps 759 mmHg 74%
10:00 +32°C° 1.1 mm 1 mps 758 mmHg 73%
11:00 +32°C° 1.1 mm 1 mps 758 mmHg 72%
12:00 +32°C° 1.1 mm 1 mps 758 mmHg 70%
13:00 +32°C° 1.2 mm 2 mps 757 mmHg 69%
14:00 +32°C° 1.2 mm 2 mps 757 mmHg 67%
15:00 +34°C° 1.2 mm 2 mps 756 mmHg 65%
16:00 +31°C° 0.1 mm 2 mps 756 mmHg 69%
17:00 +30°C° 0.1 mm 2 mps 756 mmHg 73%
18:00 +29°C° 0.1 mm 2 mps 756 mmHg 77%
19:00 +28°C° 0 mm 2 mps 757 mmHg 80%
20:00 +27°C° 0 mm 2 mps 757 mmHg 83%
21:00 +26°C° 0 mm 2 mps 757 mmHg 86%
22:00 +26°C° 0 mm 2 mps 757 mmHg 88%
23:00 +25°C° 0 mm 2 mps 757 mmHg 90%

21 July, Tuesday

Time Temperature Precipitation Wind Pressure Humidity
00:00 +25°C° 0 mm 1 mps 757 mmHg 93%
01:00 +25°C° 0 mm 1 mps 757 mmHg 93%
02:00 +25°C° 0 mm 1 mps 756 mmHg 94%
03:00 +22°C° 0 mm 0 mps 756 mmHg 95%
04:00 +23°C° 0 mm 0 mps 757 mmHg 94%
05:00 +23°C° 0 mm 0 mps 757 mmHg 94%
06:00 +23°C° 0 mm 0 mps 757 mmHg 94%
07:00 +25°C° 0 mm 0 mps 758 mmHg 86%
08:00 +29°C° 0 mm 1 mps 758 mmHg 78%
09:00 +31°C° 0 mm 1 mps 759 mmHg 70%
10:00 +32°C° 0 mm 1 mps 758 mmHg 65%
11:00 +34°C° 0 mm 2 mps 758 mmHg 61%
12:00 +35°C° 0 mm 2 mps 758 mmHg 57%
13:00 +35°C° 0.1 mm 2 mps 757 mmHg 56%
14:00 +35°C° 0.1 mm 3 mps 757 mmHg 55%
15:00 +35°C° 0.1 mm 3 mps 756 mmHg 55%
16:00 +33°C° 0 mm 3 mps 756 mmHg 61%
17:00 +31°C° 0 mm 3 mps 757 mmHg 67%
18:00 +29°C° 0 mm 2 mps 757 mmHg 74%
19:00 +28°C° 0 mm 2 mps 757 mmHg 78%
20:00 +27°C° 0 mm 2 mps 758 mmHg 82%
21:00 +26°C° 0 mm 2 mps 758 mmHg 86%
22:00 +26°C° 0 mm 2 mps 758 mmHg 88%
23:00 +26°C° 0 mm 2 mps 758 mmHg 90%
Show more